Regional Weather Roundup
Issued by NWS Jackson, KY

Home | Current Version | Previous Version | Text Only | Print | Product List | Glossary Off
Versions: 1 2 3 4 5 6 7 8 9 10 11 12 13 14 15 16 17 18 19 20 21 22 23 24 25 26 27 28 29 30 31 32 33 34 35 36 37 38 39 40 41 42 43 44 45 46 47 48 49 50

000
ASUS43 KJKL 222211
RWRJKL

EAST KENTUCKY HOURLY WEATHER ROUNDUP
NATIONAL WEATHER SERVICE JACKSON KY
600 PM EDT MON SEP 22 2014

NOTE: "FAIR" INDICATES FEW OR NO CLOUDS BELOW 12,000 FEET WITH
NO SIGNIFICANT WEATHER AND/OR OBSTRUCTIONS TO VISIBILITY.

* THESE REPORTS ARE NOT UNDER NWS QUALITY CONTROL AND MAY NOT
  REPORT WEATHER SUCH AS PRECIPITATION AND FOG.

KYZ079-080-083-085-087-088-110-112-115-119-120-222300
...EASTERN KENTUCKY...

CITY           SKY/WX    TMP DP  RH WIND       PRES   REMARKS
JACKSON        SUNNY     65  47  52 VRB3      30.19S
LONDON         SUNNY     68  46  45 NE7       30.19S
SOMERSET*      SUNNY     68  41  37 NE7       30.20S
MONTICELLO*    SUNNY     71  43  36 N7        30.20S
WILLIAMSBURG*  SUNNY     66  48  52 N8        30.18S
MIDDLESBORO*   SUNNY     68  50  53 NW7       30.17S
HARLAN APT*    CLEAR     63  46  55 MISG      30.18R
BLACK MTN*       N/A     50  46  87 VRB3        N/A
PIKEVILLE APT* MOSUNNY   61  48  63 N6        30.19S
BIG SANDY*     MOCLDY    64  49  58 CALM      30.19S
MOREHEAD APT*  CLEAR     66  45  45 VRB5G12   30.22S
$$

KYZ035-036-041-042-044-050-067-078-099-222300
...CENTRAL KENTUCKY...

CITY           SKY/WX    TMP DP  RH WIND       PRES   REMARKS
MT STERLING*   SUNNY     64  48  55 N3        30.21S
FLEMING/MASON* SUNNY     66  45  45 N6        30.21R
DANVILLE*      SUNNY     66  45  45 N6        30.21S
RICHMOND*      SUNNY     66  43  42 NW6       30.20S
LEXINGTON      SUNNY     68  46  45 NW3       30.20F
FRANKFORT      SUNNY     67  43  41 VRB7      30.20S
$$

KYZ091>093-OHZ055-061-077-WVZ005-015-034-035-042-222300
...SOUTHERN OHIO/WEST VIRGINIA...

CITY           SKY/WX    TMP DP  RH WIND       PRES   REMARKS
COVINGTON      SUNNY     65  40  39 N8        30.22R
COLUMBUS       SUNNY     64  37  36 N6        30.20S
DAYTON         SUNNY     64  40  41 VRB6      30.22F
WILMINGTON     SUNNY     64  40  41 NW13      30.21S
HUNTINGTON     MOSUNNY   67  46  47 N5        30.18R
CHARLESTON     MOSUNNY   67  46  47 CALM      30.17F
PINEVILLE*     SUNNY     59  53  81 MISG      30.23S
BECKLEY        CLOUDY    59  44  57 N7        30.19S
BLUEFIELD      PTSUNNY   60  46  59 W8        30.19S
$$

VAZ002-007-008-TNZ017-027-036-066-071-222300
...SOUTHWEST VIRGINIA/EAST TENNESSEE...

CITY           SKY/WX    TMP DP  RH WIND       PRES   REMARKS
WISE*          MOSUNNY   61  45  55 N7        30.21R
JONESVILLE*    CLEAR     66  48  52 N5        30.18S
ABINGDON*      CLOUDY    66  49  53 N3        30.16S
BRISTOL        MOSUNNY   69  47  45 VRB3      30.15R
KNOXVILLE      MOSUNNY   72  47  40 NE9       30.12S
OAK RIDGE      SUNNY     72  47  40 MISG      30.15S
CROSSVILLE     SUNNY     69  46  43 N9        30.17F
NASHVILLE      SUNNY     74  44  34 N12G21    30.17S
$$

...KEY TO REMARKS...
VSB - VISIBILITY IN MILES
WCI - WIND CHILL INDEX
HX  - HEAT INDEX

$$


USA.gov is the U.S. government's official web portal to all federal, state and local government web resources and services.